Wind_Speed
131 141 140 147 147 145 140 134 126 121 118 120 118 104 108 110 109 104 101 98 91 87 83 87 91 84 80 78 85 85 83 80 78 76 73 70 68 70 70 69 67 65 63 62
107 113 114 137 149 155 154 148 138 128 127 121 119 110 117 116 110 109 108 106 100 95 88 86 90 91 88 83 88 89 89 87 85 84 82 78 77 70 70 73 74 73 73 71
91 88 102 115 127 137 140 148 151 140 137 130 126 121 123 121 116 116 111 106 104 100 99 91 93 93 97 87 91 94 94 95 95 91 87 84 81 79 74 77 80 81 78 73
79 86 92 98 106 113 122 124 133 152 149 142 142 136 129 119 119 124 116 114 106 102 100 97 96 96 98 94 97 100 98 96 97 94 91 92 87 84 84 80 80 79 78 80
71 83 89 93 82 100 96 104 117 126 143 157 150 150 132 129 120 116 114 114 111 107 102 100 101 102 102 101 102 104 102 99 97 97 95 93 92 90 90 87 83 79 81 83
74 81 82 84 85 95 81 92 98 110 123 139 147 158 141 136 129 121 114 112 108 106 106 107 110 112 110 108 106 104 103 101 101 98 96 94 96 95 96 95 90 86 81 81
73 76 73 75 78 84 81 85 95 102 110 110 115 139 130 143 135 128 123 114 112 115 112 111 113 114 113 110 110 109 109 107 102 100 99 98 97 99 99 97 92 91 89 86
69 68 68 71 74 78 80 83 89 97 99 95 97 115 109 116 131 134 132 126 121 115 116 114 118 121 119 117 115 114 113 111 108 106 104 103 100 101 101 98 95 95 95 94
57 59 61 67 72 72 75 77 79 90 94 95 93 97 95 104 115 126 133 132 128 128 125 123 123 123 125 122 118 116 115 116 115 112 110 108 105 104 104 103 101 98 98 99
44 51 57 62 65 66 71 75 80 84 85 87 83 86 84 91 109 122 132 136 138 137 136 134 130 125 126 126 122 122 121 117 117 118 115 113 112 110 110 106 104 102 101 103
38 46 54 54 58 60 65 71 73 74 77 79 78 74 77 84 96 112 124 131 140 140 139 138 135 134 132 130 126 123 123 121 121 122 120 119 117 116 112 111 110 109 107 107
38 42 46 47 52 54 57 63 66 70 72 74 73 72 73 77 83 97 111 123 132 142 143 143 141 138 136 134 132 128 124 124 123 123 124 123 122 119 117 116 115 113 112 110
31 36 40 39 44 49 51 56 64 66 69 65 65 67 67 71 77 88 101 113 126 134 144 147 145 143 141 140 137 132 130 128 127 126 127 127 126 125 123 121 120 119 117 115
25 28 32 33 38 44 48 51 56 62 61 61 58 63 66 69 75 82 91 100 111 125 135 145 149 147 145 143 141 137 136 135 132 129 126 128 129 127 126 125 124 123 124 121
21 24 28 31 34 37 36 40 45 51 53 54 56 61 63 65 72 81 87 93 101 111 123 134 144 149 147 146 144 140 139 138 136 134 132 129 126 127 125 125 124 123 122 120
17 22 24 28 28 29 32 39 42 45 50 56 58 57 57 60 67 75 81 87 94 100 108 118 127 139 146 149 147 146 145 142 139 136 134 131 126 126 127 127 127 127 126 123
18 21 23 24 28 30 32 35 39 44 49 52 53 55 59 59 66 72 78 83 87 91 95 102 108 117 131 141 148 150 148 146 144 141 138 137 134 131 128 127 127 129 128 127
18 23 25 25 25 29 31 33 37 41 42 44 43 52 55 55 60 66 72 77 81 85 87 91 95 101 110 123 136 140 144 146 146 146 145 144 141 137 134 133 132 131 131 131
18 24 25 26 28 30 31 34 37 40 42 41 44 50 52 54 56 59 62 67 73 77 82 85 87 89 95 102 107 121 134 138 143 145 145 146 144 144 143 142 139 139 140 139
16 21 25 28 30 30 32 34 36 36 35 36 40 44 48 51 52 55 59 60 63 69 75 79 81 82 87 90 96 103 109 119 127 134 141 145 146 146 145 146 147 146 146 146
16 19 26 29 32 33 33 33 34 33 34 35 37 40 42 42 45 50 54 57 60 64 69 74 79 84 85 87 90 94 97 103 111 118 122 127 132 137 143 148 149 147 147 148
18 20 25 28 30 32 33 35 34 32 33 36 38 38 39 40 42 44 46 50 55 60 64 69 73 78 82 86 89 92 92 96 99 101 107 109 115 120 124 128 134 138 141 142
18 21 23 26 28 29 30 29 31 31 33 35 35 37 36 37 39 40 42 44 46 50 57 62 66 70 74 79 83 88 91 93 94 94 96 99 102 107 111 115 119 121 125 127
17 19 22 24 24 26 28 31 30 31 33 34 35 35 36 37 38 40 41 42 45 49 52 55 60 64 69 72 76 79 82 85 88 93 93 93 94 97 99 102 106 110 114 115
17 17 19 21 24 27 28 28 29 30 31 31 30 31 34 36 38 41 45 47 48 50 51 54 57 60 64 68 71 74 77 79 82 85 88 90 92 94 97 99 102 105 106 109
15 16 17 20 21 23 27 29 28 28 27 28 30 32 34 37 38 40 42 44 46 48 50 53 56 59 62 65 68 71 74 77 79 80 83 84 87 91 93 95 97 98 100 102
Wind_Direction
249 247 248 250 249 248 244 245 243 244 243 241 242 234 234 235 239 236 236 238 237 237 237 241 244 244 246 250 251 247 245 243 245 245 246 247 250 253 255 256 257 254 249 251
252 250 248 246 245 245 244 245 242 241 243 243 242 237 234 234 237 238 238 239 239 240 242 241 242 245 245 248 251 248 248 248 246 246 247 247 248 254 256 256 257 252 250 252
252 253 247 246 246 247 246 244 243 242 242 241 241 241 234 233 235 238 238 240 241 242 243 243 239 243 242 246 250 248 247 247 246 245 246 247 250 252 256 255 254 254 256 258
256 252 250 247 245 247 247 246 243 241 240 241 241 241 238 236 234 235 237 239 240 242 244 243 239 241 239 242 244 247 247 245 246 246 247 248 249 251 253 257 258 261 260 259
249 250 249 248 247 246 242 244 241 240 240 237 238 241 239 237 236 233 234 238 240 242 240 240 239 238 236 241 240 244 245 246 247 249 249 249 251 254 255 256 258 261 263 265
249 246 245 247 246 245 242 242 245 243 241 239 239 241 236 237 239 236 234 235 239 240 239 236 237 236 236 240 239 242 245 246 247 247 250 251 254 254 256 256 257 258 260 263
251 250 247 245 245 247 244 240 241 242 243 243 240 240 239 235 236 238 236 235 234 235 236 235 237 238 239 239 237 239 242 244 245 247 249 250 252 254 255 256 257 259 259 261
253 251 248 246 242 241 240 238 239 242 244 242 240 241 239 233 234 233 235 235 234 234 235 235 235 236 237 238 237 239 241 242 244 246 248 249 250 253 255 256 257 259 260 261
255 251 247 243 242 239 240 239 241 240 241 241 238 240 235 232 232 228 229 231 232 233 232 234 235 235 236 236 237 238 238 241 243 245 246 248 249 251 254 255 255 257 260 262
250 248 245 241 238 237 238 235 236 238 239 242 241 240 237 231 227 227 226 226 228 230 232 233 234 235 236 236 235 237 238 240 243 245 246 248 249 249 252 254 255 256 258 261
245 244 242 239 237 235 233 236 237 239 240 240 238 237 236 232 228 228 228 227 226 228 229 232 232 233 234 236 236 235 238 240 242 244 246 248 249 249 251 254 255 257 257 259
240 241 244 239 239 236 232 233 234 236 239 238 239 236 233 233 231 229 228 228 228 227 228 230 232 232 234 235 236 236 237 241 242 244 246 248 248 249 251 253 255 256 258 259
242 240 244 240 241 238 234 230 230 231 234 237 236 237 233 232 231 228 228 227 227 227 227 229 231 233 233 235 236 237 239 239 242 244 246 247 248 249 250 251 253 256 258 260
243 240 241 239 236 239 234 230 229 232 233 233 233 235 235 230 230 229 229 229 229 228 229 228 229 231 233 234 236 238 240 240 240 242 244 246 246 248 251 253 254 254 256 258
244 234 235 236 235 237 239 237 231 231 233 232 230 231 231 230 228 229 230 232 231 230 230 230 231 231 232 235 236 237 238 239 240 241 242 245 248 249 250 252 254 255 256 258
241 232 226 233 235 231 229 231 232 230 227 225 226 228 231 227 227 229 231 232 233 233 232 232 232 233 234 234 236 239 239 239 240 241 242 243 246 249 251 252 253 254 255 257
230 227 224 222 224 226 225 228 229 228 227 224 223 224 227 226 225 227 229 232 235 236 236 235 236 235 235 236 237 237 239 241 242 242 244 244 244 246 248 251 253 255 256 256
242 230 223 221 224 225 223 222 224 229 231 229 224 228 228 225 226 229 230 231 234 237 239 238 238 238 237 237 239 239 240 241 243 245 246 246 246 246 247 249 249 251 254 257
244 238 229 223 224 223 225 225 225 225 227 226 222 228 229 228 228 230 231 232 234 234 236 239 241 240 240 240 241 240 241 242 243 244 246 247 248 249 248 249 251 253 255 256
248 244 237 228 221 225 224 228 227 229 230 231 228 231 231 231 228 230 229 229 232 235 237 238 239 239 240 241 242 242 241 242 244 245 245 247 248 249 251 252 253 254 255 257
246 233 233 230 229 224 227 232 234 229 228 227 228 229 230 233 234 232 230 229 229 231 233 234 236 238 240 241 242 243 243 243 244 245 245 247 248 249 250 251 253 255 257 258
255 242 238 233 232 230 226 229 235 234 230 228 226 229 232 229 230 231 231 232 232 230 231 233 234 235 237 239 241 244 246 246 247 248 249 249 249 250 250 253 255 256 257 260
264 249 240 237 234 232 231 230 232 232 234 235 232 231 226 228 229 230 231 230 230 230 232 233 235 237 238 239 240 241 243 245 248 249 251 252 253 253 253 254 254 255 257 259
279 260 247 242 238 232 228 228 229 232 235 236 232 230 227 226 227 228 229 234 236 235 233 234 236 237 237 239 241 242 242 243 244 248 248 249 253 255 255 255 257 258 260 261
284 276 265 248 238 233 235 236 234 235 234 236 237 235 234 232 231 231 231 231 231 233 237 238 239 239 239 239 240 241 243 244 244 244 246 248 249 249 251 253 255 257 259 261
274 273 278 269 253 244 240 240 239 239 240 240 239 237 237 238 239 239 238 238 239 240 239 239 240 242 243 244 244 245 245 246 247 247 247 248 249 250 252 253 253 253 254 256
Height
10230 10242 10282 10304 10317 10320 10330 10340 10367 10385 10394 10395 10418 10465 10460 10456 10462 10486 10497 10508 10524 10537 10543 10548 10556 10561 10566 10572 10579 10583 10588 10593 10601 10605 10608 10613 10616 10617 10623 10627 10631 10634 10636 10636
10204 10226 10267 10238 10244 10262 10285 10307 10333 10359 10359 10375 10395 10430 10426 10431 10448 10460 10472 10486 10503 10516 10524 10533 10537 10542 10552 10553 10558 10564 10570 10577 10581 10586 10589 10597 10599 10603 10609 10614 10617 10617 10618 10622
10181 10209 10201 10204 10217 10219 10246 10272 10303 10324 10332 10345 10351 10379 10393 10411 10425 10436 10452 10468 10482 10498 10504 10512 10518 10522 10529 10537 10539 10542 10546 10553 10556 10564 10572 10578 10583 10590 10593 10594 10596 10600 10606 10611
10166 10166 10166 10170 10186 10202 10219 10246 10265 10276 10283 10308 10311 10332 10347 10383 10400 10407 10433 10445 10459 10472 10480 10488 10497 10501 10507 10512 10512 10518 10523 10531 10533 10545 10553 10562 10564 10571 10573 10578 10582 10587 10592 10595
10138 10133 10136 10142 10180 10159 10188 10202 10214 10228 10234 10260 10264 10276 10344 10352 10365 10393 10418 10425 10434 10445 10457 10465 10471 10475 10478 10481 10490 10496 10502 10511 10517 10527 10533 10542 10548 10553 10554 10559 10566 10573 10576 10578
10102 10100 10113 10125 10139 10133 10179 10175 10187 10195 10198 10197 10245 10248 10314 10324 10350 10367 10385 10401 10414 10422 10426 10432 10435 10441 10451 10458 10468 10477 10484 10492 10499 10508 10514 10522 10526 10532 10533 10541 10548 10554 10559 10562
10075 10080 10099 10109 10117 10121 10146 10156 10150 10154 10159 10191 10232 10206 10269 10304 10322 10345 10362 10375 10380 10386 10393 10400 10408 10418 10428 10436 10444 10452 10461 10471 10479 10485 10493 10500 10505 10508 10513 10521 10529 10535 10539 10543
10052 10066 10077 10087 10094 10099 10110 10125 10130 10133 10144 10169 10189 10179 10240 10283 10289 10304 10322 10341 10350 10361 10367 10371 10377 10384 10397 10408 10417 10430 10440 10448 10457 10462 10471 10478 10485 10489 10495 10502 10508 10514 10520 10522
10038 10045 10054 10061 10066 10080 10092 10103 10115 10113 10124 10138 10161 10174 10210 10242 10257 10271 10285 10303 10317 10317 10329 10335 10341 10356 10368 10381 10396 10407 10415 10424 10432 10440 10448 10457 10461 10468 10473 10480 10488 10496 10500 10502
10024 10026 10030 10036 10046 10062 10071 10078 10084 10092 10110 10122 10146 10160 10185 10206 10212 10223 10240 10260 10269 10277 10288 10303 10318 10331 10341 10351 10369 10378 10389 10401 10409 10416 10425 10433 10438 10444 10451 10460 10467 10472 10476 10480
10010 10010 10011 10024 10031 10044 10053 10059 10071 10084 10095 10107 10124 10144 10158 10168 10180 10194 10206 10225 10239 10250 10263 10275 10288 10297 10313 10326 10341 10355 10364 10377 10384 10392 10401 10408 10414 10421 10430 10437 10442 10447 10452 10458
9996 10000 10004 10015 10020 10031 10039 10046 10057 10067 10079 10091 10106 10123 10136 10147 10159 10171 10183 10197 10211 10224 10235 10243 10255 10272 10289 10302 10313 10330 10343 10350 10361 10369 10375 10383 10390 10399 10406 10413 10418 10424 10430 10436
9990 9994 9996 10007 10012 10018 10026 10035 10042 10053 10062 10078 10093 10103 10118 10127 10135 10142 10152 10165 10178 10192 10203 10216 10229 10243 10260 10276 10289 10300 10316 10329 10337 10345 10351 10359 10367 10373 10379 10386 10396 10402 10407 10411
9982 9988 9991 9997 10001 10005 10012 10021 10033 10042 10054 10065 10079 10084 10094 10108 10115 10123 10130 10141 10153 10164 10174 10185 10199 10214 10229 10247 10263 10274 10286 10298 10311 10320 10325 10330 10340 10348 10355 10363 10370 10376 10381 10386
9976 9981 9985 9987 9992 9997 10008 10016 10023 10031 10041 10052 10060 10067 10076 10088 10096 10102 10110 10119 10128 10137 10149 10161 10175 10187 10203 10219 10233 10244 10254 10266 10279 10292 10302 10309 10313 10323 10334 10339 10343 10348 10353 10360
9970 9972 9977 9980 9986 9992 9998 10002 10009 10017 10025 10033 10042 10055 10062 10072 10078 10085 10093 10100 10107 10117 10131 10141 10154 10168 10180 10193 10207 10216 10226 10237 10249 10264 10277 10287 10294 10298 10305 10312 10317 10322 10327 10331
9964 9966 9970 9975 9978 9983 9989 9994 9999 10004 10011 10021 10032 10039 10044 10055 10062 10069 10078 10085 10092 10101 10113 10123 10134 10148 10157 10167 10176 10186 10200 10211 10224 10237 10249 10261 10271 10278 10282 10286 10291 10294 10299 10304
9959 9959 9962 9968 9972 9976 9981 9987 9991 9995 10002 10012 10024 10026 10032 10042 10048 10056 10063 10071 10078 10086 10095 10103 10114 10125 10132 10142 10150 10168 10179 10189 10200 10210 10222 10232 10239 10249 10258 10264 10265 10266 10268 10273
9954 9955 9959 9962 9965 9970 9975 9978 9983 9988 9993 10002 10010 10014 10021 10028 10035 10041 10049 10056 10064 10071 10077 10083 10094 10104 10112 10119 10135 10148 10155 10164 10175 10185 10191 10197 10211 10218 10224 10230 10239 10244 10246 10249
9951 9952 9954 9958 9961 9963 9968 9973 9978 9984 9990 9996 10001 10005 10010 10015 10023 10030 10036 10042 10048 10054 10061 10069 10077 10086 10093 10102 10111 10120 10131 10139 10146 10153 10161 10170 10178 10185 10193 10200 10204 10210 10214 10217
9948 9949 9949 9952 9955 9958 9962 9966 9971 9978 9983 9987 9992 9996 10001 10007 10012 10017 10022 10029 10035 10041 10047 10053 10061 10067 10075 10082 10089 10096 10105 10112 10118 10124 10132 10140 10149 10155 10161 10164 10169 10177 10183 10187
9943 9943 9945 9947 9950 9954 9957 9961 9965 9970 9973 9977 9982 9987 9993 9997 10000 10005 10011 10016 10022 10027 10032 10037 10043 10049 10056 10063 10070 10076 10083 10089 10094 10102 10107 10118 10123 10127 10132 10135 10141 10149 10153 10158
9939 9939 9940 9943 9946 9948 9952 9957 9960 9963 9967 9970 9974 9978 9982 9987 9991 9995 9999 10003 10008 10014 10018 10023 10028 10034 10040 10044 10050 10056 10061 10066 10072 10079 10084 10089 10096 10100 10105 10110 10115 10120 10123 10129
9935 9935 9936 9937 9941 9944 9947 9950 9953 9957 9960 9963 9965 9969 9973 9977 9982 9986 9989 9993 9997 10001 10005 10009 10014 10019 10023 10027 10032 10037 10042 10048 10053 10057 10062 10065 10068 10072 10077 10080 10084 10089 10094 10098
9929 9930 9932 9933 9934 9937 9940 9944 9947 9950 9954 9957 9960 9963 9966 9969 9972 9976 9979 9982 9986 9989 9993 9996 10000 10003 10007 10011 10014 10018 10022 10027 10031 10035 10039 10042 10047 10052 10055 10057 10060 10064 10068 10071
9924 9925 9926 9928 9930 9933 9936 9938 9941 9944 9947 9950 9953 9955 9958 9959 9961 9964 9967 9970 9974 9977 9980 9983 9986 9988 9992 9995 9999 10002 10004 10007 10010 10014 10017 10021 10025 10028 10031 10035 10039 10041 10044 10046